User: anonymous   Login
Location: Unspecified
(0.0000°N, 0.0000°E)
Time: 10:04:01
(UTC+00:00)
Language:

OSCAR 3 - Orbit

View from above orbital plane
View from above orbital plane
View from above satellite
View from above satellite

Ground track
Ground track

The orbit data is extracted from the following two-line orbital elements,

1 01293U 65016F   18108.89262480  .00000113  00000-0  10108-3 0  9998
2 01293  70.0766  26.7111 0018338 186.7175 173.3693 14.06251839713326
Epoch (UTC): 18 April 2018 21:25:22
Eccentricity: 0.0018338
inclination: 70.0766°
perigee height: 859 km
apogee height: 885 km
right ascension of ascending node: 26.7111°
argument of perigee: 186.7175°
revolutions per day: 14.06251839
mean anomaly at epoch: 173.3693°
orbit number at epoch: 71332

The dashed part of the orbit path shows where the satellite is in the earth's shadow,  

DLR